weather.gov     
National Weather Service

Regional Weather Roundup
NWS Homepage
This page is being discontinued on March 12, 2014.
The same data is available at this site. Please update your bookmarks.
Thank you, and we apologize for the inconvenience.
Please send an email to SR-SRH.Webmaster@noaa.gov with any concerns.


Current Version
Previous Version:    01  02  03  04  05  06  07  08  09  10  11  12  13  14  15  16  17  18  19  20  21  22  23  24  25  26  27  28  
[Printable]
502
ASUS42 KTBW 191910
RWRFL
FLORIDA REGIONAL WEATHER ROUNDUP
NATIONAL WEATHER SERVICE TAMPA BAY RUSKIN FL
300 PM EDT FRI SEP 19 2014

NOTE: "FAIR" INDICATES FEW OR NO CLOUDS BELOW 12,000 FEET WITH NO
SIGNIFICANT WEATHER AND/OR OBSTRUCTIONS TO VISIBILITY.


FLZ001>010-012>015-112-114-115-192000-
PANHANDLE FLORIDA

CITY           SKY/WX    TMP DP  RH WIND       PRES   REMARKS
PENSACOLA      MOSUNNY   80  71  74 S14       29.97F
PENSACOLA NAS  PTSUNNY   82  72  71 S10       29.97S
MILTON NAS     PTSUNNY   86  65  49 SE12      29.97F
CRESTVIEW      MOSUNNY   86  68  54 E5        29.98F
DUKE FIELD     PTSUNNY   85  74  67 SE3       29.97S
VALPARAISO     PTSUNNY   85  72  66 S9        29.97F
MARY ESTHER    MOSUNNY   84  66  54 S10       29.96F
TRI COUNTY     FAIR      85  72  65 N3        29.97F
PANAMA CITY    FAIR      82  72  71 CALM      29.96F
TYNDALL AFB    PTSUNNY   80  73  79 VRB2      29.96F
APALACHICOLA   CLOUDY    82  71  69 MISG      29.97R

STATION/POSITION SKY/WX   TEMP    WIND        PRES    WAVE   SWELL
                          AIR SEA DIR/SP/G            HT/PER HT/PER
                          (F)     (DEG/KT/KT) (MB)    (FT/S) (FT/S)
30.1N   87.6W              78 85  130/ 14/ 17 1014.7F   2/ 4
29.2N   88.2W              78 84  100/ 25/ 29 1014.2    5/ 5
28.8N   86.0W              79 85   90/ 16/ 17 1013.5F   4/ 5
PANAMA CITY BEAC           80 86   10/  5/  7 1014.5F
CAPE SAN BLAS    NOT AVBL
TOWER C                    75     100/ 18/ 20 1014.6R
28.5N   84.5W              77 84   80/ 23/ 27 1013.9F   3/ 4

$$
FLZ011-016>038-118-127-128-134-139-239-192000-
NORTH FLORIDA

CITY           SKY/WX    TMP DP  RH WIND       PRES   REMARKS
MARIANNA       CLOUDY    84  74  71 E8        29.97F
TALLAHASSEE    CLOUDY    82  71  69 SE9       29.97F
PERRY          CLOUDY    79  75  89 E5        29.99S
CROSS CITY       N/A     80  76  87 VRB3      29.98S
LAKE CITY      FAIR      81  73  78 CALM      29.99F
GAINESVILLE    CLOUDY    80  76  87 S7        29.98F
MAYPORT NAS    CLOUDY    84  73  69 NE10      29.98F
JACKSONVILLE   CLOUDY    81  74  79 NE5       29.98F
JAX NAS        CLOUDY    82  71  69 NW6       29.99S
JAX CRAIG      CLOUDY    83  72  69 E6        29.98F
JAX CECIL      PTSUNNY   75  70  83 CALM      29.99F
ST AUGUSTINE   CLOUDY    84  73  69 E9        29.98F

STATION/POSITION SKY/WX   TEMP    WIND        PRES    WAVE   SWELL
                          AIR SEA DIR/SP/G            HT/PER HT/PER
                          (F)     (DEG/KT/KT) (MB)    (FT/S) (FT/S)
SHELL POINT                80      60/  2/  5   N/A
KEATON BEACH               78      80/  7/  8 1015.2F
CEDAR KEY                  79     130/  8/  9 1016.2S
FERNANDINA                 83 84   80/  6/ 11 1015.0S
30.7N   81.3W                 84                N/A     2/10
MAYPORT                    82 85   60/  9/ 11   N/A
31.4N   80.9W              80 84   60/ 19/ 25 1015.9F   3/10   2/10
ST AUGUSTINE               81     120/ 10/ 11 1015.9F

$$
FLZ040-043>046-052-053-057-058-063-144-192000-
INTERIOR CENTRAL FLORIDA

CITY           SKY/WX    TMP DP  RH WIND       PRES   REMARKS
THE VILLAGES     N/A     81  79  94 CALM      29.87F FOG
LEESBURG       CLOUDY    81  76  84 NE7       29.98F
SANFORD        LGT RAIN  79  70  74 N6        29.96F
ORLANDO EXEC   CLOUDY    78  67  68 N8        29.95F
ORLANDO INTL   LGT RAIN  78  70  76 N13G18    29.95F
KISSIMMEE      LGT RAIN  73  72  94 CALM      29.95F
WINTER HAVEN   LGT RAIN  74  70  87 NE8       29.96F
LAKELAND       LGT RAIN  79  79 100 N6        29.94F
BARTOW         LGT RAIN  75  70  83 NE8       29.95F
OKEECHOBEE     CLOUDY    72  68  88 MISG      29.94S

$$
FLZ041-047-054-059-064-141-147-192000-
EAST CENTRAL FLORIDA

CITY           SKY/WX    TMP DP  RH WIND       PRES   REMARKS
ORMOND BEACH   LGT RAIN  79  73  83 SE9       29.99R
DAYTONA BEACH  LGT RAIN  75  69  81 E12       29.99R
DELAND         CLOUDY    82  73  74 CALM      29.98F
NEW SMYRNA BEA PTSUNNY   75  68  78 N17G29    29.99R
JFK SPACE CTR  CLOUDY    84  73  70 E7        29.94F
TITUSVILLE     CLOUDY    84  73  70 NE9       29.95F
CAPE CANAVERAL CLOUDY    84  75  74 E5        29.94F
PATRICK AFB    CLOUDY    84  74  71 E13       29.93F
MELBOURNE      CLOUDY    85  72  65 E13       29.93F
VERO BEACH     CLOUDY    84  71  65 E10       29.93F
FT PIERCE      CLOUDY    84  72  67 E9        29.93S
STUART         TSTM      81  73  78 SE8       29.95R

STATION/POSITION SKY/WX   TEMP    WIND        PRES    WAVE   SWELL
                          AIR SEA DIR/SP/G            HT/PER HT/PER
                          (F)     (DEG/KT/KT) (MB)    (FT/S) (FT/S)
28.5N   80.2W              83 85   80/ 10/ 12 1014.7F
28.9N   78.5W              83 85   70/ 12/ 14 1014.2F   3/11   2/11
TRIDENT PIER               83 85   80/  7/ 11 1013.6F
28.4N   80.5W                 84                N/A     2/11
27.6N   80.2W                 84                N/A     2/12   2/12

$$
FLZ050-056-061-142-242-148-248-149-249-151-251-155-255-
160-260-192000-
WEST CENTRAL FLORIDA

CITY           SKY/WX    TMP DP  RH WIND       PRES   REMARKS
CRYSTAL RIVER  CLOUDY    79  73  83 NE3       29.97F
INVERNESS      DRIZZLE   79  68  69 N3        29.98F
BROOKSVILLE    RAIN      78  76  93 N7        29.97F
ZEPHYRHILLS    FAIR      77  77 100 N6        29.95F
CLEARWATER     LGT RAIN  79  76  90 NE12      29.93F
TAMPA INTL     LGT RAIN  78  75  90 N6        29.94F
TAMPA EXEC     HVY RAIN  81  77  89 CALM      29.94F
PLANT CITY     LGT RAIN  81 N/A N/A N5        29.96F
MACDILL AFB    CLOUDY    78  78 100 NE6       29.93F
ST PETERSBURG  LGT RAIN  81  76  84 NE15      29.91F
SARASOTA       LGT RAIN  79  77  94 S5        29.91F
VENICE           N/A    N/A N/A N/A MISG        N/A

STATION/POSITION SKY/WX   TEMP    WIND        PRES    WAVE   SWELL
                          AIR SEA DIR/SP/G            HT/PER HT/PER
                          (F)     (DEG/KT/KT) (MB)    (FT/S) (FT/S)
CEDAR KEY                  79     130/  8/  9 1016.2S
28.5N   84.5W              77 84   80/ 23/ 27 1013.9F   3/ 4
27.3N   84.3W                 85                N/A     3/ 4
CLEARWATER BEACH NOT AVBL
MIDDLE TAMPA BAY           80     110/  7/  9 1013.9F
VENICE                     73 86  340/ 10/ 11 1013.1F

$$
FLZ066-069-070-075>078-162-262-165-265-192000-
SOUTHWEST FLORIDA AND KEYS

CITY           SKY/WX    TMP DP  RH WIND       PRES   REMARKS
PUNTA GORDA    LGT RAIN  79  75  87 E3        29.94F
FT MYERS       LGT RAIN  77  75  93 CALM      29.91F
SOUTHWEST INTL LGT RAIN  77  63  61 CALM      29.93F
NAPLES         CLOUDY    79  75  87 CALM      29.92F
MARCO ISLAND   CLOUDY    75  73  94 CALM      29.92F
MARATHON       CLOUDY    87  77  72 SW6       29.92F HX  99
KEY WEST NAS   CLOUDY    86  75  69 SW7       29.92F HX  95
KEY WEST INTL  CLOUDY    85  75  72 SW6       29.92F

STATION/POSITION SKY/WX   TEMP    WIND        PRES    WAVE   SWELL
                          AIR SEA DIR/SP/G            HT/PER HT/PER
                          (F)     (DEG/KT/KT) (MB)    (FT/S) (FT/S)
VENICE                     73 86  340/ 10/ 11 1013.1F
NAPLES                     78 88  220/  2/  4 1013.8F
DRY TORTUGAS               84     160/  4/  5 1012.7F
NW FL BAY                  80      CALM  /  1 1014.3F
SAND KEY                   83     210/  5/  7 1013.3F
SOMBRERO KEY               85     200/  5/  6 1013.9F
LONG KEY                   84 85  220/  7/  8 1014.5F
MOLASSES REEF              84 85  220/  6/  7 1013.4F

$$
FLZ067-068-071>074-168-172>174-192000-
SOUTHEAST FLORIDA

CITY           SKY/WX    TMP DP  RH WIND       PRES   REMARKS
W PALM BEACH   TSTM      75  73  93 W6        29.94S FOG
FT LAUDER-EXEC CLOUDY    78  76  93 S6        29.93F
FT LAUDERDALE  TSTM      80  75  84 CALM      29.92F
POMPANO BEACH  CLOUDY    79  76  90 S7        29.93F
PEMBROKE PINES CLOUDY    77  75  93 CALM      29.93F FOG
OPA LOCKA      CLOUDY    78  73  84 NE6       29.93F
MIAMI          CLOUDY    79  75  87 SE6       29.93F
WEST KENDALL   LGT RAIN  80  75  84 E5        29.94F
HOMESTEAD      CLOUDY    80  76  87 E3        29.94F

STATION/POSITION SKY/WX   TEMP    WIND        PRES    WAVE   SWELL
                          AIR SEA DIR/SP/G            HT/PER HT/PER
                          (F)     (DEG/KT/KT) (MB)    (FT/S) (FT/S)
PORT EVERGLADES            76     210/  3/  6 1013.6
VIRGINIA KEY               76 85   CALM  /  1   N/A
LAKE WORTH                 74 85  270/  4/  6 1013.6F
FOWEY ROCKS                80 85  260/ 10/ 11 1013.9F
SETTLEMENT POINT           77      90/ 18/ 21 1014.1F

$$





U.S. Dept. of Commerce
NOAA National Weather Service
1325 East West Highway
Silver Spring, MD 20910
E-mail: w-nws.webmaster@noaa.gov
Page last modified: May 16, 2007
NATIONAL WEATHER SERVICE: for Safety, for Work, for Fun - FOR LIFE